Regional Weather Roundup
Issued by NWS

Home | Current Version | Previous Version | Text Only | Print | Product List | Glossary Off
Versions: 1 2 3 4 5 6 7 8 9 10 11 12 13 14 15 16 17 18 19 20 21 22 23 24 25 26 27 28 29 30 31 32 33 34 35 36 37 38 39 40 41 42 43 44 45 46 47 48 49 50

000
ASUS43 KDMX 261604
RWRIA

WEATHER ROUNDUP FOR IOWA
NATIONAL WEATHER SERVICE DES MOINES IA
  ISSUED BY NWS QUAD CITIES IA IL
1100 AM CDT THU MAR 26 2015

NOTE: "FAIR" INDICATES FEW OR NO CLOUDS BELOW 12,000 FEET WITH NO
SIGNIFICANT WEATHER AND/OR OBSTRUCTIONS TO VISIBILITY.

* - THESE STATIONS ARE NOT NWS STATIONS...THUS NOT UNDER NWS
QUALITY CONTROL.  THEY ALSO DO NOT REPORT WEATHER SUCH
AS PRECIPITATION OR FOG.

IAZ001>003-012>014-020>022-031>034-043>046-261700-
   NORTHWEST IOWA

CITY           SKY/WX    TMP DP  RH WIND       PRES   REMARKS
CARROLL *      SUNNY     39  23  52 NW15      30.17F WCI  31
CHEROKEE *     SUNNY     39  26  60 NW10      30.18S WCI  32
DENNISON *     SUNNY     39  27  60 NW8       30.17F WCI  34
LE MARS *      SUNNY     39  25  56 NW10      30.21R WCI  32
ORANGE CITY *  SUNNY     39  25  56 NW9G16    30.18R WCI  33
SHELDON *      SUNNY     37  27  65 NW10G18   30.17R WCI  30
SIOUX CITY     SUNNY     40  24  53 NW12      30.21F WCI  33
SPENCER        MOSUNNY   39  25  57 NW16      30.17R WCI  30
STORM LAKE *   SUNNY     39  23  52 NW17G23   30.17S WCI  30
$$

IAZ055>058-069>071-079>083-090>094-261700-
   SOUTHWEST IOWA

CITY           SKY/WX    TMP DP  RH WIND       PRES   REMARKS
ATLANTIC *     SUNNY     39  27  60 NW14      30.20F WCI  31
AUDUBON *      SUNNY     39  25  56 NW13G20   30.19F WCI  32
CLARINDA *     SUNNY     41  27  56 NW10      30.23F WCI  35
COUNCIL BLFS * SUNNY     39  25  56 NW8G15    30.22S WCI  34
CRESTON *      SUNNY     39  25  56 NW14      30.18F WCI  31
HARLAN *       SUNNY     39  27  60 NW12G21   30.23F WCI  32
LAMONI         SUNNY     43  22  43 N17G23    30.17F WCI  35
RED OAK *      SUNNY     41  27  56 NW9G16    30.21F WCI  35
SHENANDOAH *   SUNNY     41  27  56 NW12      30.23F WCI  34
$$

IAZ047>049-059>061-072>074-084-261700-
   CENTRAL IOWA

CITY           SKY/WX    TMP DP  RH WIND       PRES   REMARKS
AMES           MOSUNNY   41  23  48 NW14      30.16S WCI  33
ANKENY *       SUNNY     41  23  48 NW15      30.16F WCI  33
BOONE *        MOSUNNY   39  25  56 NW13G21   30.14F WCI  32
CHARITON *     MIX PCPN  41  23  48 N21G26    30.15F WCI  32
DES MOINES     MOSUNNY   42  22  44 N20G30    30.17F WCI  33
GRINNELL *     MOSUNNY   39  26  59 NW18G28   30.14S WCI  29
KNOXVILLE *    SUNNY     39  19  45 NW21G26   30.14F WCI  29
MARSHALLTOWN   MOSUNNY   37  24  59 NW20      30.13S WCI  27
NEWTON *       MOSUNNY   39  23  52 N18G28    30.14F WCI  30
PELLA *        SUNNY     40  27  59 N21G28    30.16S WCI  30
PERRY *        FAIR      40  26  58 NW15G21   30.18S WCI  31
$$

IAZ004>006-015-016-023>025-035-036-261700-
   NORTH CENTRAL IOWA

CITY           SKY/WX    TMP DP  RH WIND       PRES   REMARKS
ALGONA *       PTSUNNY   36  27  69 NW18      30.15F WCI  25
CLARION *      MOSUNNY   36  27  69 NW20G26   30.14S WCI  25
ESTHERVILLE    PTSUNNY   35  26  69 N18       30.15S WCI  24
FORT DODGE *   MOSUNNY   37  23  56 NW14G22   30.16F WCI  29
MASON CITY     SUNNY     35  22  58 NW22      30.13S WCI  23
FOREST CITY *  FAIR      34  21  60 NW18G25   30.13R WCI  23
WEBSTER CITY * MOSUNNY   37  28  70 NW20      30.13F WCI  27
IOWA FALLS *   FAIR      37  28  69 NW20G26   30.14S WCI  26
$$

IAZ007>011-017>019-026>030-037>042-050>054-066-261700-
   NORTHEAST IOWA

CITY           SKY/WX    TMP DP  RH WIND       PRES   REMARKS
CEDAR RAPIDS   SUNNY     39  21  48 NW23      30.09S WCI  28
CHARLES CITY * FAIR      32  25  74 NW18      30.11S WCI  20
CLINTON *      PTSUNNY   37  25  60 NW10      30.09S WCI  30
DECORAH *      CLOUDY    30  21  69 N13G22    30.06S WCI  20
DUBUQUE        MOSUNNY   36  21  54 N16       30.04S WCI  26
MONTICELLO *   SUNNY     37  23  56 NW17G26   30.07S WCI  28
OELWEIN *      SUNNY     34  23  64 NW22G29   30.09S WCI  22
WATERLOO       SUNNY     39  21  48 N25G33    30.09F WCI  28
$$

IAZ064-065-067-068-078-261700-
   EAST CENTRAL IOWA

CITY           SKY/WX    TMP DP  RH WIND       PRES   REMARKS
DAVENPORT      SUNNY     38  24  57 N17       30.07S WCI  28
IOWA CITY      SUNNY     39  20  46 NW21G28   30.11S WCI  29
MUSCATINE *    SUNNY     41  21  45 NW17G28   30.11S WCI  32
QUAD CITIES    MOSUNNY   39  24  55 NW13      30.07S WCI  31
$$

IAZ062-063-075>077-085>089-095>099-261700-
   SOUTHEAST IOWA

CITY           SKY/WX    TMP DP  RH WIND       PRES   REMARKS
BURLINGTON     SUNNY     40  24  53 NW16G24   30.10S WCI  31
FAIRFIELD *    SUNNY     39  23  52 N22G29    30.12F WCI  29
FORT MADISON * SUNNY     39  25  56 NW18G25   30.11F WCI  30
KEOKUK *       SUNNY     41  23  48 NW14G26   30.11F WCI  33
OSKALOOSA *    FAIR      40  25  55 N23       30.14S WCI  29
CENTERVILLE *  FAIR      41  23  48 NW17G23   30.16S WCI  32
OTTUMWA        SUNNY     41  23  48 NW23G29   30.13F WCI  31
WASHINGTON *   SUNNY     41  23  48 NW24G30   30.11S WCI  31
$$

ABBREVIATIONS USED IN REMARKS
   TC - TEMPERATURES IN CELSIUS
  WCI - WIND CHILL INDEX
   HX - HEAT INDEX
  VSB - VISIBILITY
$$


USA.gov is the U.S. government's official web portal to all federal, state and local government web resources and services.